Location: Kitt Peak
(31.9639°N, 111.5992°W)
Time: 21:44:09
(UTC-07:00)

AO-85 - Visible Passes

Search period start: 18 September 2024 00:00
Search period end: 28 September 2024 00:00
Orbit: 485 x 751 km, 64.8° (Epoch: 18 September)

Date Brightness Start Highest point End Pass type
(mag) Time Alt. Az. Time Alt. Az. Time Alt. Az.
22 Sep ? 05:25:17 10° SSE 05:28:28 18° ESE 05:31:48 10° ENE visible
23 Sep ? 05:40:47 10° S 05:45:08 41° ESE 05:49:49 10° NE visible
25 Sep ? 04:36:22 10° SSE 04:39:31 18° ESE 04:42:49 10° ENE visible
26 Sep ? 04:51:48 10° S 04:56:09 40° ESE 05:00:49 10° NE visible
27 Sep ? 05:08:15 10° SSW 05:12:57 90° ESE 05:18:01 10° NNE visible
